SVA6679 OBBI-OERK

Flight info

Callsign SVA6679
Flight time 0h 51m
Altitude 30000
Route BHR B457 NARMI N112 GETOT Q212 KIA
Aircraft A320/M-SDE3FGHIRWY/LB1

Departure

Time 2026-04-28 05:53
Airport Bahrain International Airport (OBBI)

Arrival

Time 2026-04-28 06:44
Airport King Khalid International Airport (OERK)
Time Latitude Longitude Altitude Speed Heading
2026-04-28 05:34 26.26956 50.62779 18 ft 0 kts 214°
2026-04-28 05:43 26.26970 50.62789 21 ft 4 kts 215°
2026-04-28 05:44 26.26992 50.62806 19 ft 4 kts 216°
2026-04-28 05:44 26.27013 50.62824 22 ft 4 kts 221°
2026-04-28 05:44 26.27029 50.62843 18 ft 3 kts 238°
2026-04-28 05:44 26.27035 50.62858 20 ft 2 kts 269°
2026-04-28 05:45 26.27033 50.62874 18 ft 2 kts 294°
2026-04-28 05:45 26.27028 50.62886 21 ft 2 kts 300°
2026-04-28 05:45 26.27023 50.62896 21 ft 0 kts 302°
2026-04-28 05:47 26.27023 50.62895 20 ft 1 kts 302°
2026-04-28 05:47 26.27050 50.62847 18 ft 14 kts 302°
2026-04-28 05:47 26.27117 50.62731 17 ft 15 kts 303°
2026-04-28 05:48 26.27167 50.62649 19 ft 10 kts 315°
2026-04-28 05:48 26.27222 50.62643 17 ft 7 kts 29°
2026-04-28 05:48 26.27270 50.62661 19 ft 10 kts
2026-04-28 05:48 26.27330 50.62596 17 ft 16 kts 301°
2026-04-28 05:49 26.27402 50.62469 17 ft 23 kts 302°
2026-04-28 05:49 26.27502 50.62298 17 ft 30 kts 303°
2026-04-28 05:49 26.27617 50.62103 17 ft 31 kts 304°
2026-04-28 05:49 26.27726 50.61914 19 ft 27 kts 302°
2026-04-28 05:50 26.27825 50.61746 20 ft 23 kts 302°
2026-04-28 05:50 26.27912 50.61658 18 ft 15 kts 341°
2026-04-28 05:50 26.27931 50.61654 18 ft 0 kts 355°
2026-04-28 05:51 26.27949 50.61654 19 ft 4 kts
2026-04-28 05:52 26.27984 50.61667 19 ft 12 kts 28°
2026-04-28 05:52 26.28013 50.61759 19 ft 15 kts 122°
2026-04-28 05:52 26.27931 50.61907 19 ft 43 kts 121°
2026-04-28 05:52 26.27638 50.62410 16 ft 106 kts 122°
2026-04-28 05:53 26.27154 50.63246 17 ft 153 kts 123°
2026-04-28 05:53 26.26536 50.64303 375 ft 165 kts 123°
2026-04-28 05:53 26.25887 50.65389 853 ft 171 kts 122°
2026-04-28 05:53 26.25519 50.66654 1298 ft 182 kts 90°
2026-04-28 05:54 26.25695 50.68147 1724 ft 204 kts 80°
2026-04-28 05:54 26.26044 50.69707 2161 ft 217 kts 75°
2026-04-28 05:54 26.26486 50.71403 2425 ft 236 kts 76°
2026-04-28 05:54 26.26931 50.73205 2788 ft 253 kts 68°
2026-04-28 05:55 26.27976 50.74822 3225 ft 266 kts 37°
2026-04-28 05:55 26.29673 50.75686 3699 ft 274 kts
2026-04-28 05:55 26.31568 50.75495 3950 ft 274 kts 334°
2026-04-28 05:55 26.33055 50.74245 4263 ft 269 kts 303°
2026-04-28 05:56 26.33785 50.72366 4983 ft 265 kts 276°
2026-04-28 05:56 26.33709 50.70323 5706 ft 266 kts 260°
2026-04-28 05:56 26.33454 50.68273 6418 ft 269 kts 263°
2026-04-28 05:56 26.33255 50.66196 7132 ft 270 kts 264°
2026-04-28 05:57 26.33078 50.64130 7862 ft 272 kts 264°
2026-04-28 05:57 26.32899 50.62034 8643 ft 273 kts 263°
2026-04-28 05:57 26.32711 50.59923 9394 ft 274 kts 263°
2026-04-28 05:57 26.32516 50.57811 10102 ft 275 kts 263°
2026-04-28 05:58 26.32309 50.55645 10524 ft 289 kts 262°
2026-04-28 05:58 26.32088 50.53357 10819 ft 305 kts 262°
2026-04-28 05:58 26.31852 50.50945 11097 ft 322 kts 262°
2026-04-28 05:58 26.31602 50.48407 11374 ft 337 kts 262°
2026-04-28 05:59 26.31346 50.45783 11881 ft 343 kts 262°
2026-04-28 05:59 26.31091 50.43163 12502 ft 346 kts 262°
2026-04-28 05:59 26.30838 50.40587 13109 ft 349 kts 262°
2026-04-28 05:59 26.30572 50.37885 13698 ft 352 kts 262°
2026-04-28 06:00 26.30303 50.35172 13923 ft 353 kts 262°
2026-04-28 06:00 26.30177 50.32444 13989 ft 354 kts 270°
2026-04-28 06:00 26.30482 50.29716 14002 ft 356 kts 276°
2026-04-28 06:00 26.30877 50.26990 14003 ft 356 kts 276°
2026-04-28 06:01 26.31271 50.24272 14005 ft 356 kts 276°
2026-04-28 06:01 26.31658 50.21584 14008 ft 356 kts 276°
2026-04-28 06:01 26.32044 50.18867 14093 ft 354 kts 276°
2026-04-28 06:01 26.32293 50.16130 14579 ft 355 kts 268°
2026-04-28 06:02 26.32235 50.13372 15166 ft 358 kts 266°
2026-04-28 06:02 26.32173 50.10591 15766 ft 360 kts 266°
2026-04-28 06:02 26.32113 50.07799 16327 ft 362 kts 266°
2026-04-28 06:02 26.32052 50.04990 16888 ft 363 kts 266°
2026-04-28 06:03 26.31991 50.02168 17449 ft 365 kts 266°
2026-04-28 06:03 26.31929 49.99364 18001 ft 368 kts 266°
2026-04-28 06:03 26.31867 49.96507 18517 ft 370 kts 266°
2026-04-28 06:03 26.31808 49.93639 19045 ft 371 kts 266°
2026-04-28 06:04 26.31747 49.90759 19569 ft 372 kts 266°
2026-04-28 06:04 26.31685 49.87879 20082 ft 372 kts 267°
2026-04-28 06:04 26.31622 49.84988 20579 ft 373 kts 267°
2026-04-28 06:04 26.31557 49.82092 21081 ft 374 kts 267°
2026-04-28 06:05 26.31491 49.79189 21554 ft 375 kts 267°
2026-04-28 06:05 26.31423 49.76274 22001 ft 377 kts 267°
2026-04-28 06:05 26.31351 49.73351 22467 ft 378 kts 267°
2026-04-28 06:05 26.31280 49.70461 22890 ft 379 kts 267°
2026-04-28 06:06 26.31210 49.67520 23317 ft 380 kts 267°
2026-04-28 06:06 26.31139 49.64571 23671 ft 381 kts 267°
2026-04-28 06:06 26.31068 49.61608 23997 ft 383 kts 266°
2026-04-28 06:06 26.30997 49.58637 24317 ft 384 kts 266°
2026-04-28 06:07 26.30925 49.55660 24631 ft 385 kts 266°
2026-04-28 06:07 26.30851 49.52664 24939 ft 387 kts 266°
2026-04-28 06:07 26.30776 49.49659 25258 ft 389 kts 266°
2026-04-28 06:07 26.30701 49.46646 25549 ft 390 kts 266°
2026-04-28 06:08 26.30624 49.43620 25836 ft 392 kts 266°
2026-04-28 06:08 26.30546 49.40579 26117 ft 393 kts 266°
2026-04-28 06:08 26.30466 49.37526 26398 ft 395 kts 265°
2026-04-28 06:08 26.30384 49.34501 26675 ft 397 kts 265°
2026-04-28 06:09 26.30302 49.31420 26939 ft 398 kts 265°
2026-04-28 06:09 26.30220 49.28327 27200 ft 400 kts 265°
2026-04-28 06:09 26.30139 49.25225 27449 ft 402 kts 265°
2026-04-28 06:09 26.30059 49.22111 27698 ft 403 kts 265°
2026-04-28 06:10 26.29977 49.18976 27937 ft 405 kts 265°
2026-04-28 06:10 26.29891 49.15832 28167 ft 406 kts 265°
2026-04-28 06:10 26.29800 49.12685 28390 ft 408 kts 265°
2026-04-28 06:10 26.29704 49.09520 28609 ft 409 kts 264°
2026-04-28 06:11 26.29540 49.06357 28825 ft 409 kts 263°
2026-04-28 06:11 26.29310 49.03236 29031 ft 410 kts 262°
2026-04-28 06:11 26.29042 49.00068 29242 ft 411 kts 262°
2026-04-28 06:11 26.28764 48.96897 29516 ft 410 kts 262°
2026-04-28 06:12 26.28491 48.93743 29776 ft 409 kts 262°
2026-04-28 06:12 26.28233 48.90620 29837 ft 401 kts 262°
2026-04-28 06:12 26.27752 48.84442 29841 ft 399 kts 262°
2026-04-28 06:13 26.27283 48.78285 29845 ft 399 kts 262°
2026-04-28 06:13 26.26810 48.72181 29845 ft 398 kts 262°
2026-04-28 06:14 26.26325 48.66044 29848 ft 397 kts 262°
2026-04-28 06:14 26.25844 48.59930 29858 ft 396 kts 262°
2026-04-28 06:15 26.25362 48.53828 29866 ft 395 kts 262°
2026-04-28 06:15 26.24101 48.47984 29864 ft 391 kts 245°
2026-04-28 06:16 26.21802 48.42507 29859 ft 390 kts 245°
2026-04-28 06:16 26.19505 48.37026 29866 ft 390 kts 245°
2026-04-28 06:17 26.17217 48.31557 29858 ft 390 kts 245°
2026-04-28 06:18 26.13791 48.23364 29852 ft 391 kts 245°
2026-04-28 06:18 26.11391 48.17936 29849 ft 392 kts 238°
2026-04-28 06:19 26.07828 48.13325 29834 ft 395 kts 229°
2026-04-28 06:19 26.04034 48.08897 29838 ft 396 kts 229°
2026-04-28 06:20 26.00269 48.04498 29840 ft 396 kts 229°
2026-04-28 06:20 25.96466 48.00055 29854 ft 396 kts 229°
2026-04-28 06:21 25.92671 47.95619 29849 ft 397 kts 229°
2026-04-28 06:21 25.88859 47.91176 29855 ft 397 kts 229°
2026-04-28 06:22 25.85064 47.86772 29869 ft 398 kts 229°
2026-04-28 06:22 25.81242 47.82331 29878 ft 398 kts 229°
2026-04-28 06:23 25.77411 47.77880 29881 ft 399 kts 229°
2026-04-28 06:23 25.73578 47.73433 29883 ft 399 kts 229°
2026-04-28 06:24 25.69743 47.68983 29886 ft 406 kts 229°
2026-04-28 06:24 25.65821 47.64449 29458 ft 407 kts 229°
2026-04-28 06:24 25.63872 47.62197 28756 ft 403 kts 228°
2026-04-28 06:25 25.61940 47.59964 27999 ft 400 kts 228°
2026-04-28 06:25 25.60020 47.57746 27292 ft 396 kts 228°
2026-04-28 06:25 25.58120 47.55549 26617 ft 393 kts 228°
2026-04-28 06:25 25.56237 47.53370 25960 ft 390 kts 228°
2026-04-28 06:26 25.54391 47.51238 25331 ft 388 kts 228°
2026-04-28 06:26 25.52522 47.49079 24995 ft 389 kts 228°
2026-04-28 06:26 25.50643 47.46908 24870 ft 390 kts 228°
2026-04-28 06:26 25.48767 47.44747 24903 ft 391 kts 228°
2026-04-28 06:27 25.46873 47.42568 24909 ft 392 kts 228°
2026-04-28 06:27 25.44986 47.40395 24898 ft 392 kts 228°
2026-04-28 06:27 25.43100 47.38224 24900 ft 392 kts 227°
2026-04-28 06:27 25.41210 47.36051 24905 ft 392 kts 227°
2026-04-28 06:28 25.39346 47.33911 24908 ft 391 kts 227°
2026-04-28 06:28 25.37460 47.31745 24910 ft 391 kts 227°
2026-04-28 06:28 25.35579 47.29583 24751 ft 389 kts 227°
2026-04-28 06:28 25.33714 47.27441 24256 ft 385 kts 227°
2026-04-28 06:29 25.31865 47.25316 23685 ft 382 kts 227°
2026-04-28 06:29 25.30030 47.23208 23053 ft 379 kts 227°
2026-04-28 06:29 25.28207 47.21118 22398 ft 377 kts 227°
2026-04-28 06:29 25.26391 47.19042 21799 ft 374 kts 227°
2026-04-28 06:30 25.24586 47.16975 21208 ft 372 kts 227°
2026-04-28 06:30 25.22818 47.14949 20632 ft 371 kts 227°
2026-04-28 06:30 25.21032 47.12898 20104 ft 369 kts 227°
2026-04-28 06:30 25.20433 47.12210 19934 ft 369 kts 227°
2026-04-28 06:31 25.18926 47.10471 19476 ft 367 kts 228°
2026-04-28 06:31 25.17157 47.08442 18924 ft 366 kts 228°
2026-04-28 06:31 25.15371 47.06411 18158 ft 372 kts 227°
2026-04-28 06:32 25.13592 47.04395 17292 ft 368 kts 227°
2026-04-28 06:32 25.11849 47.02412 16721 ft 352 kts 227°
2026-04-28 06:32 25.10184 47.00512 16203 ft 336 kts 227°
2026-04-28 06:32 25.08594 46.98695 15700 ft 324 kts 227°
2026-04-28 06:33 25.07057 46.96939 15200 ft 313 kts 227°
2026-04-28 06:33 25.05569 46.95240 14713 ft 303 kts 226°
2026-04-28 06:33 25.04128 46.93597 14226 ft 294 kts 226°
2026-04-28 06:33 25.02722 46.91997 13747 ft 287 kts 226°
2026-04-28 06:34 25.01363 46.90454 13224 ft 283 kts 225°
2026-04-28 06:34 24.99997 46.88899 12694 ft 282 kts 225°
2026-04-28 06:34 24.98639 46.87348 12158 ft 280 kts 225°
2026-04-28 06:34 24.97288 46.85806 11494 ft 280 kts 225°
2026-04-28 06:35 24.95937 46.84267 10810 ft 278 kts 224°
2026-04-28 06:35 24.94592 46.82739 10294 ft 278 kts 224°
2026-04-28 06:35 24.93260 46.81225 10045 ft 274 kts 224°
2026-04-28 06:35 24.91926 46.79709 10003 ft 276 kts 224°
2026-04-28 06:36 24.91041 46.78707 9989 ft 275 kts 223°
2026-04-28 06:36 24.88933 46.77281 9606 ft 272 kts 194°
2026-04-28 06:36 24.87051 46.77206 9154 ft 275 kts 170°
2026-04-28 06:36 24.85283 46.78007 8705 ft 279 kts 152°
2026-04-28 06:37 24.83605 46.79078 8273 ft 278 kts 152°
2026-04-28 06:37 24.81947 46.80133 8089 ft 271 kts 152°
2026-04-28 06:37 24.80875 46.80813 8005 ft 265 kts 152°
2026-04-28 06:37 24.79313 46.81802 7882 ft 252 kts 152°
2026-04-28 06:38 24.77833 46.82738 7751 ft 239 kts 152°
2026-04-28 06:38 24.76168 46.84235 7398 ft 237 kts 120°
2026-04-28 06:38 24.75840 46.86023 6892 ft 247 kts 81°
2026-04-28 06:38 24.76229 46.87202 6552 ft 251 kts 56°
2026-04-28 06:39 24.77577 46.88405 6023 ft 255 kts 18°
2026-04-28 06:39 24.79824 46.88250 5331 ft 254 kts 329°
2026-04-28 06:39 24.81086 46.86865 4793 ft 255 kts 300°
2026-04-28 06:39 24.81644 46.85730 4507 ft 253 kts 294°
2026-04-28 06:40 24.82379 46.83987 4140 ft 249 kts 294°
2026-04-28 06:40 24.83086 46.82290 3996 ft 235 kts 294°
2026-04-28 06:40 24.83729 46.80740 3998 ft 209 kts 294°
2026-04-28 06:40 24.84546 46.79003 4022 ft 186 kts 302°
2026-04-28 06:41 24.85351 46.78024 4000 ft 162 kts 321°
2026-04-28 06:41 24.85993 46.77593 3866 ft 159 kts 329°
2026-04-28 06:41 24.87258 46.76793 3607 ft 157 kts 328°
2026-04-28 06:41 24.87885 46.76396 3475 ft 157 kts 328°
2026-04-28 06:42 24.88830 46.75799 3282 ft 156 kts 328°
2026-04-28 06:42 24.90086 46.75006 3017 ft 155 kts 327°
2026-04-28 06:42 24.90698 46.74619 2888 ft 153 kts 328°
2026-04-28 06:42 24.91394 46.74180 2744 ft 152 kts 328°
2026-04-28 06:43 24.92607 46.73427 2440 ft 149 kts 328°
2026-04-28 06:43 24.93191 46.73059 2322 ft 147 kts 327°
2026-04-28 06:43 24.94010 46.72527 2139 ft 146 kts 326°
2026-04-28 06:43 24.94604 46.72149 2048 ft 145 kts 327°
2026-04-28 06:44 24.95142 46.71791 2034 ft 110 kts 332°
2026-04-28 06:44 24.95653 46.71476 2035 ft 59 kts 330°
2026-04-28 06:44 24.95917 46.71294 2031 ft 29 kts 311°
2026-04-28 06:44 24.95983 46.71194 2031 ft 23 kts 297°
2026-04-28 06:45 24.95991 46.71176 2035 ft 0 kts 294°